Regional Weather Roundup
Issued by NWS

Home | Current Version | Previous Version | Graphics & Text | Print | Product List | Glossary On
Versions: 1 2 3 4 5 6 7 8 9 10 11 12 13 14 15 16 17 18 19 20 21 22 23 24 25 26 27 28 29 30 31 32 33 34 35 36 37 38 39 40 41 42 43 44 45 46 47 48 49 50
159
ASUS44 KJAN 172203
RWRMS

MISSISSIPPI HOURLY WEATHER ROUNDUP
NATIONAL WEATHER SERVICE JACKSON MS
500 PM CDT WED SEP 17 2014

NOTE: "FAIR: INDICATES FEW OR NO CLOUDS BELOW 12,000 FEET WITH NO
SIGNIFICANT WEATHER AND/OR OBSTRUCTIONS TO VISIBILITY.

MSZ001>002-007>008-010>013-018>021-025>028-034>036-172300-
NORTHWEST MISSISSIPPI

CITY           SKY/WX    TMP DP  RH WIND       PRES   REMARKS
CLARKSDALE     PTSUNNY   84  68  58 CALM      29.95S
CLEVELAND      MOCLDY    88  69  53 N7        29.90F HX  92
GREENWOOD      SUNNY     88  67  49 N6        29.91F HX  91
GREENVILLE     MOSUNNY   91  65  41 N8        29.89F HX  93
GRENADA        FAIR      82  68  61 E3        29.93F
OXFORD         PTSUNNY   77  64  65 N3        29.97S
TUNICA         CLOUDY    77  64  65 N10       29.98R
$$

MSZ003>006-009-014>017-022>024-029>033-037>039-172300-
NORTHEAST MISSISSIPPI

CITY           SKY/WX    TMP DP  RH WIND       PRES   REMARKS
COLUMBUS AFB   MOSUNNY   83  65  55 N8        29.94F
CORINTH        MOCLDY    75  61  60 NW5       29.95R
GOLDN TRIANGLE MOSUNNY   88  66  48 NW5       29.94F HX  90
STARKVILLE     FAIR      82  64  54 N5        29.94S
TUPELO         PTSUNNY   80  64  58 E6        29.94F
$$

MSZ040-058-172300-
CENTRAL MISSISSIPPI

CITY           SKY/WX    TMP DP  RH WIND       PRES   REMARKS
JACKSON INTL   MOSUNNY   89  67  47 NE5       29.91S HX  92
JACKSON HAWKNS PTSUNNY   90  67  46 VRB3      29.91S HX  93
MERIDIAN KEY   MOSUNNY   91  64  40 NE12G17   29.90F HX  92
MERIDIAN NAS   PTSUNNY   88  65  46 NE7       29.92S HX  90
RAYMOND        FAIR      91 N/A N/A W3        29.90F
VICKSBURG      SUNNY     92  65  40 VRB5      29.89F HX  94
$$

MSZ059>079-172300-
SOUTH MISSISSIPPI

CITY           SKY/WX    TMP DP  RH WIND       PRES   REMARKS
BROOKHAVEN     FAIR      88  70  55 NW3       29.92F HX  92
HATTIESBURG    SUNNY     92  68  45 NE3       29.89F HX  96
MCCOMB         PTSUNNY   87  69  54 SW6       29.91S HX  91
NATCHEZ        MOSUNNY   88  72  58 SW3       29.91F HX  94
PINE BELT      SUNNY     86  68  54 CALM      29.92S
$$

MSZ080>082-172300-
COASTAL MISSISSIPPI

CITY           SKY/WX    TMP DP  RH WIND       PRES   REMARKS
BAY ST LOUIS   MOSUNNY   88  70  55 S5        29.89  HX  92
BILOXI         SUNNY     86  73  63 SW9       29.89F HX  93
PASCAGOULA     SUNNY     86  73  65 S7        29.89F HX  93
GULFPORT       MOSUNNY   86  72  62 S8        29.88F HX  92
$$



USA.gov is the U.S. government's official web portal to all federal, state and local government web resources and services.